contact: severine.martini@mio.osupytheas.fr, dominique.lefevre@mio.osupytheas.fr
Project:EMSO Ligure-ouest http://www.emso-fr.org/EMSO-France
Sensor Microcat Sea-Bird SBE37 SMP,  Serial 57510 
DOI : "https://doi.org/10.17882/97948" 
Title:EMSO Ligure Ouest : Data Bathybot capteur Microcat - deploiement 2023-04-28
Datetime,Profondeur,Latitude,Longitude,Temperature,Conductivite,Pression,Salinite
time,m,degree_north,degree_east,degree_C,S/m,db,PSU 
2023-11-25T00:00:49,2420,42.8014,5.9826,13.2975,4.38555,2453.438,36.4799
2023-11-25T00:03:49,2420,42.8014,5.9826,13.2970,4.38587,2453.424,36.4834
2023-11-25T00:06:49,2420,42.8014,5.9826,13.2972,4.38564,2453.461,36.4810
2023-11-25T00:09:49,2420,42.8014,5.9826,13.2973,4.38607,2453.401,36.4850
2023-11-25T00:12:49,2420,42.8014,5.9826,13.2976,4.38600,2453.446,36.4840
2023-11-25T00:15:49,2420,42.8014,5.9826,13.2973,4.38619,2453.424,36.4861
2023-11-25T00:18:49,2420,42.8014,5.9826,13.2972,4.38490,2453.446,36.4741
2023-11-25T00:21:49,2420,42.8014,5.9826,13.2975,4.38452,2453.401,36.4702
2023-11-25T00:24:49,2420,42.8014,5.9826,13.2970,4.38585,2453.446,36.4831
2023-11-25T00:27:49,2420,42.8014,5.9826,13.2973,4.38585,2453.424,36.4829
2023-11-25T00:30:49,2420,42.8014,5.9826,13.2973,4.38583,2453.446,36.4827
2023-11-25T00:33:49,2420,42.8014,5.9826,13.2974,4.38606,2453.446,36.4847
2023-11-25T00:36:49,2420,42.8014,5.9826,13.2969,4.38561,2453.446,36.4810
2023-11-25T00:39:49,2420,42.8014,5.9826,13.2972,4.38582,2453.446,36.4827
2023-11-25T00:42:49,2420,42.8014,5.9826,13.2970,4.38584,2453.424,36.4830
2023-11-25T00:45:49,2420,42.8014,5.9826,13.2974,4.38592,2453.446,36.4835
2023-11-25T00:48:49,2420,42.8014,5.9826,13.2970,4.38597,2453.446,36.4843
2023-11-25T00:51:49,2420,42.8014,5.9826,13.2975,4.38611,2453.446,36.4851
2023-11-25T00:54:49,2420,42.8014,5.9826,13.2972,4.38592,2453.409,36.4836
2023-11-25T00:57:49,2420,42.8014,5.9826,13.2970,4.38597,2453.424,36.4843
2023-11-25T01:00:49,2420,42.8014,5.9826,13.2975,4.38574,2453.424,36.4817
2023-11-25T01:03:49,2420,42.8014,5.9826,13.2974,4.38574,2453.469,36.4818
2023-11-25T01:06:49,2420,42.8014,5.9826,13.2977,4.38595,2453.424,36.4835
2023-11-25T01:09:49,2420,42.8014,5.9826,13.2971,4.38600,2453.431,36.4844
2023-11-25T01:12:49,2420,42.8014,5.9826,13.2973,4.38581,2453.409,36.4825
2023-11-25T01:15:49,2420,42.8014,5.9826,13.2975,4.38586,2453.469,36.4828
2023-11-25T01:18:49,2420,42.8014,5.9826,13.2973,4.38601,2453.446,36.4844
2023-11-25T01:21:49,2420,42.8014,5.9826,13.2975,4.38587,2453.431,36.4828
2023-11-25T01:24:49,2420,42.8014,5.9826,13.2976,4.38563,2453.483,36.4805
2023-11-25T01:27:49,2420,42.8014,5.9826,13.2969,4.38441,2453.424,36.4698
2023-11-25T01:30:49,2420,42.8014,5.9826,13.2972,4.38482,2453.409,36.4733
2023-11-25T01:33:49,2420,42.8014,5.9826,13.2972,4.38475,2453.424,36.4727
2023-11-25T01:36:49,2420,42.8014,5.9826,13.2972,4.38499,2453.446,36.4750
2023-11-25T01:39:49,2420,42.8014,5.9826,13.2973,4.38424,2453.469,36.4677
2023-11-25T01:42:49,2420,42.8014,5.9826,13.2971,4.38572,2453.469,36.4818
2023-11-25T01:45:49,2420,42.8014,5.9826,13.2971,4.38592,2453.469,36.4838
2023-11-25T01:48:49,2420,42.8014,5.9826,13.2970,4.38608,2453.491,36.4853
2023-11-25T01:51:50,2420,42.8014,5.9826,13.2973,4.38590,2453.469,36.4834
2023-11-25T01:54:49,2420,42.8014,5.9826,13.2971,4.38588,2453.499,36.4833
2023-11-25T01:57:49,2420,42.8014,5.9826,13.2976,4.38619,2453.491,36.4858
2023-11-25T02:00:49,2420,42.8014,5.9826,13.2972,4.38637,2453.454,36.4879
2023-11-25T02:03:49,2420,42.8014,5.9826,13.2976,4.38556,2453.469,36.4799
2023-11-25T02:06:49,2420,42.8014,5.9826,13.2973,4.38605,2453.469,36.4848
2023-11-25T02:09:49,2420,42.8014,5.9826,13.2970,4.38622,2453.469,36.4866
2023-11-25T02:12:49,2420,42.8014,5.9826,13.2973,4.38503,2453.446,36.4751
2023-11-25T02:15:49,2420,42.8014,5.9826,13.2975,4.38499,2453.499,36.4746
2023-11-25T02:18:49,2420,42.8014,5.9826,13.2970,4.38601,2453.491,36.4846
2023-11-25T02:21:49,2420,42.8014,5.9826,13.2973,4.38584,2453.477,36.4827
2023-11-25T02:24:49,2420,42.8014,5.9826,13.2976,4.38597,2453.491,36.4837
2023-11-25T02:27:49,2420,42.8014,5.9826,13.2971,4.38634,2453.469,36.4876
2023-11-25T02:30:49,2420,42.8014,5.9826,13.2972,4.38633,2453.514,36.4875
2023-11-25T02:33:49,2420,42.8014,5.9826,13.2974,4.38582,2453.491,36.4825
2023-11-25T02:36:49,2420,42.8014,5.9826,13.2973,4.38599,2453.514,36.4842
2023-11-25T02:39:49,2420,42.8014,5.9826,13.2973,4.38589,2453.537,36.4832
2023-11-25T02:42:49,2420,42.8014,5.9826,13.2973,4.38609,2453.499,36.4852
2023-11-25T02:45:49,2420,42.8014,5.9826,13.2973,4.38570,2453.514,36.4815
2023-11-25T02:48:49,2420,42.8014,5.9826,13.2978,4.38493,2453.514,36.4739
2023-11-25T02:51:49,2420,42.8014,5.9826,13.2971,4.38490,2453.537,36.4741
2023-11-25T02:54:49,2420,42.8014,5.9826,13.2976,4.38496,2453.514,36.4742
2023-11-25T02:57:49,2420,42.8014,5.9826,13.2973,4.38499,2453.522,36.4748
2023-11-25T03:00:50,2420,42.8014,5.9826,13.2972,4.38457,2453.514,36.4710
2023-11-25T03:03:49,2420,42.8014,5.9826,13.2971,4.38524,2453.537,36.4773
2023-11-25T03:06:49,2420,42.8014,5.9826,13.2973,4.38524,2453.499,36.4771
2023-11-25T03:09:49,2420,42.8014,5.9826,13.2972,4.38615,2453.559,36.4858
2023-11-25T03:12:49,2420,42.8014,5.9826,13.2975,4.38542,2453.522,36.4787
2023-11-25T03:15:49,2420,42.8014,5.9826,13.2976,4.38536,2453.559,36.4780
2023-11-25T03:18:49,2420,42.8014,5.9826,13.2970,4.38571,2453.537,36.4818
2023-11-25T03:21:49,2420,42.8014,5.9826,13.2974,4.38566,2453.537,36.4809
2023-11-25T03:24:49,2420,42.8014,5.9826,13.2973,4.38608,2453.559,36.4850
2023-11-25T03:27:49,2420,42.8014,5.9826,13.2970,4.38536,2453.559,36.4786
2023-11-25T03:30:49,2420,42.8014,5.9826,13.2970,4.38606,2453.537,36.4851
2023-11-25T03:33:49,2420,42.8014,5.9826,13.2973,4.38408,2453.559,36.4663
2023-11-25T03:36:49,2420,42.8014,5.9826,13.2972,4.38443,2453.559,36.4697
2023-11-25T03:39:49,2420,42.8014,5.9826,13.2970,4.38484,2453.567,36.4737
2023-11-25T03:42:49,2420,42.8014,5.9826,13.2973,4.38579,2453.537,36.4823
2023-11-25T03:45:49,2420,42.8014,5.9826,13.2974,4.38615,2453.559,36.4856
2023-11-25T03:48:49,2420,42.8014,5.9826,13.2973,4.38635,2453.582,36.4874
2023-11-25T03:51:49,2420,42.8014,5.9826,13.2967,4.38551,2453.582,36.4802
2023-11-25T03:54:49,2420,42.8014,5.9826,13.2970,4.38600,2453.559,36.4846
2023-11-25T03:57:49,2420,42.8014,5.9826,13.2976,4.38593,2453.559,36.4833
2023-11-25T04:00:49,2420,42.8014,5.9826,13.2973,4.38596,2453.582,36.4838
2023-11-25T04:03:49,2420,42.8014,5.9826,13.2973,4.38575,2453.604,36.4819
2023-11-25T04:06:49,2420,42.8014,5.9826,13.2972,4.38548,2453.582,36.4794
2023-11-25T04:09:49,2420,42.8014,5.9826,13.2969,4.38559,2453.537,36.4808
2023-11-25T04:12:49,2420,42.8014,5.9826,13.2973,4.38572,2453.582,36.4817
2023-11-25T04:15:49,2420,42.8014,5.9826,13.2965,4.38590,2453.544,36.4841
2023-11-25T04:18:49,2420,42.8014,5.9826,13.2972,4.38558,2453.574,36.4804
2023-11-25T04:21:49,2420,42.8014,5.9826,13.2971,4.38528,2453.544,36.4777
2023-11-25T04:24:49,2420,42.8014,5.9826,13.2970,4.38512,2453.582,36.4763
2023-11-25T04:27:49,2420,42.8014,5.9826,13.2971,4.38557,2453.582,36.4804
2023-11-25T04:30:49,2420,42.8014,5.9826,13.2970,4.38574,2453.574,36.4822
2023-11-25T04:33:49,2420,42.8014,5.9826,13.2973,4.38609,2453.582,36.4851
2023-11-25T04:36:49,2420,42.8014,5.9826,13.2972,4.38592,2453.604,36.4836
2023-11-25T04:39:49,2420,42.8014,5.9826,13.2971,4.38691,2453.604,36.4929
2023-11-25T04:42:49,2420,42.8014,5.9826,13.2973,4.38639,2453.544,36.4879
2023-11-25T04:45:49,2420,42.8014,5.9826,13.2975,4.38670,2453.627,36.4906
2023-11-25T04:48:49,2420,42.8014,5.9826,13.2975,4.38669,2453.604,36.4905
2023-11-25T04:51:49,2420,42.8014,5.9826,13.2967,4.38654,2453.619,36.4899
2023-11-25T04:54:50,2420,42.8014,5.9826,13.2969,4.38630,2453.582,36.4874
2023-11-25T04:57:49,2420,42.8014,5.9826,13.2973,4.38574,2453.612,36.4817
2023-11-25T05:00:49,2420,42.8014,5.9826,13.2970,4.38664,2453.604,36.4905
2023-11-25T05:03:49,2420,42.8014,5.9826,13.2971,4.38630,2453.604,36.4872
2023-11-25T05:06:49,2420,42.8014,5.9826,13.2970,4.38624,2453.604,36.4868
2023-11-25T05:09:49,2420,42.8014,5.9826,13.2968,4.38624,2453.604,36.4869
2023-11-25T05:12:49,2420,42.8014,5.9826,13.2971,4.38644,2453.604,36.4885
2023-11-25T05:15:49,2420,42.8014,5.9826,13.2972,4.38634,2453.627,36.4875
2023-11-25T05:18:49,2420,42.8014,5.9826,13.2973,4.38667,2453.590,36.4904
2023-11-25T05:21:49,2420,42.8014,5.9826,13.2971,4.38563,2453.604,36.4809
2023-11-25T05:24:49,2420,42.8014,5.9826,13.2972,4.38640,2453.582,36.4881
2023-11-25T05:27:49,2420,42.8014,5.9826,13.2971,4.38629,2453.582,36.4872
2023-11-25T05:30:49,2420,42.8014,5.9826,13.2971,4.38606,2453.582,36.4850
2023-11-25T05:33:49,2420,42.8014,5.9826,13.2974,4.38635,2453.582,36.4874
2023-11-25T05:36:49,2420,42.8014,5.9826,13.2973,4.38589,2453.596,36.4832
2023-11-25T05:39:49,2420,42.8014,5.9826,13.2973,4.38623,2453.604,36.4864
2023-11-25T05:42:49,2420,42.8014,5.9826,13.2979,4.38576,2453.590,36.4814
2023-11-25T05:45:49,2420,42.8014,5.9826,13.2970,4.38600,2453.596,36.4845
2023-11-25T05:48:49,2420,42.8014,5.9826,13.2971,4.38578,2453.596,36.4824
2023-11-25T05:51:49,2420,42.8014,5.9826,13.2969,4.38569,2453.627,36.4817
2023-11-25T05:54:49,2420,42.8014,5.9826,13.2969,4.38566,2453.582,36.4814
2023-11-25T05:57:49,2420,42.8014,5.9826,13.2973,4.38574,2453.590,36.4818
2023-11-25T06:00:49,2420,42.8014,5.9826,13.2975,4.38641,2453.627,36.4879
2023-11-25T06:03:49,2420,42.8014,5.9826,13.2973,4.38557,2453.582,36.4802
2023-11-25T06:06:49,2420,42.8014,5.9826,13.2975,4.38536,2453.604,36.4781
2023-11-25T06:09:49,2420,42.8014,5.9826,13.2977,4.38468,2453.582,36.4715
2023-11-25T06:12:49,2420,42.8014,5.9826,13.2972,4.38207,2453.582,36.4476
2023-11-25T06:15:49,2420,42.8014,5.9826,13.2969,4.38249,2453.567,36.4518
2023-11-25T06:18:49,2420,42.8014,5.9826,13.2975,4.38358,2453.582,36.4614
2023-11-25T06:21:49,2420,42.8014,5.9826,13.2972,4.38358,2453.604,36.4617
2023-11-25T06:24:49,2420,42.8014,5.9826,13.2978,4.38324,2453.627,36.4579
2023-11-25T06:27:49,2420,42.8014,5.9826,13.2973,4.38407,2453.604,36.4662
2023-11-25T06:30:49,2420,42.8014,5.9826,13.2971,4.38461,2453.582,36.4714
2023-11-25T06:33:49,2420,42.8014,5.9826,13.2975,4.38359,2453.619,36.4615
2023-11-25T06:36:49,2420,42.8014,5.9826,13.2967,4.38361,2453.604,36.4624
2023-11-25T06:39:49,2420,42.8014,5.9826,13.2975,4.38420,2453.582,36.4672
2023-11-25T06:42:49,2420,42.8014,5.9826,13.2972,4.38411,2453.627,36.4667
2023-11-25T06:45:49,2420,42.8014,5.9826,13.2971,4.38381,2453.604,36.4639
2023-11-25T06:48:49,2420,42.8014,5.9826,13.2970,4.38430,2453.604,36.4686
2023-11-25T06:51:49,2420,42.8014,5.9826,13.2972,4.38417,2453.567,36.4672
2023-11-25T06:54:49,2420,42.8014,5.9826,13.2976,4.38369,2453.559,36.4623
2023-11-25T06:57:49,2420,42.8014,5.9826,13.2973,4.38421,2453.559,36.4675
2023-11-25T07:00:49,2420,42.8014,5.9826,13.2973,4.38388,2453.596,36.4643
2023-11-25T07:03:49,2420,42.8014,5.9826,13.2974,4.38411,2453.582,36.4665
2023-11-25T07:06:49,2420,42.8014,5.9826,13.2974,4.38343,2453.582,36.4601
2023-11-25T07:09:49,2420,42.8014,5.9826,13.2973,4.38316,2453.582,36.4576
2023-11-25T07:12:49,2420,42.8014,5.9826,13.2974,4.38349,2453.604,36.4607
2023-11-25T07:15:49,2420,42.8014,5.9826,13.2973,4.38356,2453.604,36.4613
2023-11-25T07:18:49,2420,42.8014,5.9826,13.2972,4.38315,2453.582,36.4577
2023-11-25T07:21:49,2420,42.8014,5.9826,13.2975,4.38357,2453.559,36.4614
2023-11-25T07:24:49,2420,42.8014,5.9826,13.2972,4.38368,2453.559,36.4626
2023-11-25T07:27:49,2420,42.8014,5.9826,13.2975,4.38472,2453.582,36.4721
2023-11-25T07:30:49,2420,42.8014,5.9826,13.2976,4.38535,2453.582,36.4778
2023-11-25T07:33:49,2420,42.8014,5.9826,13.2975,4.38500,2453.559,36.4747
2023-11-25T07:36:49,2420,42.8014,5.9826,13.2975,4.38523,2453.582,36.4768
2023-11-25T07:39:49,2420,42.8014,5.9826,13.2973,4.38527,2453.582,36.4775
2023-11-25T07:42:49,2420,42.8014,5.9826,13.2974,4.38534,2453.559,36.4780
2023-11-25T07:45:49,2420,42.8014,5.9826,13.2973,4.38531,2453.559,36.4778
2023-11-25T07:48:49,2420,42.8014,5.9826,13.2973,4.38532,2453.559,36.4778
2023-11-25T07:51:49,2420,42.8014,5.9826,13.2971,4.38764,2453.537,36.4997
2023-11-25T07:54:49,2420,42.8014,5.9826,13.2975,4.38600,2453.567,36.4841
2023-11-25T07:57:49,2420,42.8014,5.9826,13.2973,4.38624,2453.574,36.4864
2023-11-25T08:00:50,2420,42.8014,5.9826,13.2972,4.38589,2453.559,36.4833
2023-11-25T08:03:49,2420,42.8014,5.9826,13.2971,4.38587,2453.559,36.4832
2023-11-25T08:06:49,2420,42.8014,5.9826,13.2971,4.38603,2453.559,36.4847
2023-11-25T08:09:49,2420,42.8014,5.9826,13.2973,4.38577,2453.537,36.4820
2023-11-25T08:12:49,2420,42.8014,5.9826,13.2973,4.38604,2453.537,36.4846
2023-11-25T08:15:49,2420,42.8014,5.9826,13.2974,4.38625,2453.559,36.4865
2023-11-25T08:18:49,2420,42.8014,5.9826,13.2974,4.38628,2453.559,36.4868
2023-11-25T08:21:49,2420,42.8014,5.9826,13.2978,4.38620,2453.537,36.4857
2023-11-25T08:24:49,2420,42.8014,5.9826,13.2975,4.38599,2453.537,36.4840
2023-11-25T08:27:50,2420,42.8014,5.9826,13.2973,4.38601,2453.514,36.4844
2023-11-25T08:30:49,2420,42.8014,5.9826,13.2970,4.38549,2453.537,36.4797
2023-11-25T08:33:49,2420,42.8014,5.9826,13.2975,4.38577,2453.544,36.4820
2023-11-25T08:36:49,2420,42.8014,5.9826,13.2978,4.38481,2453.537,36.4726
2023-11-25T08:39:49,2420,42.8014,5.9826,13.2975,4.38451,2453.514,36.4702
2023-11-25T08:42:49,2420,42.8014,5.9826,13.2976,4.38435,2453.537,36.4685
2023-11-25T08:45:49,2420,42.8014,5.9826,13.2973,4.38371,2453.514,36.4628
2023-11-25T08:48:49,2420,42.8014,5.9826,13.2971,4.38427,2453.537,36.4683
2023-11-25T08:51:50,2420,42.8014,5.9826,13.2971,4.38417,2453.499,36.4673
2023-11-25T08:54:49,2420,42.8014,5.9826,13.2973,4.38406,2453.537,36.4660
2023-11-25T08:57:49,2420,42.8014,5.9826,13.2970,4.38394,2453.537,36.4652
2023-11-25T09:00:49,2420,42.8014,5.9826,13.2974,4.38375,2453.514,36.4631
2023-11-25T09:03:49,2420,42.8014,5.9826,13.2973,4.38426,2453.514,36.4680
2023-11-25T09:06:49,2420,42.8014,5.9826,13.2970,4.38361,2453.537,36.4622
2023-11-25T09:09:49,2420,42.8014,5.9826,13.2968,4.38385,2453.499,36.4646
2023-11-25T09:12:49,2420,42.8014,5.9826,13.2973,4.38444,2453.514,36.4696
2023-11-25T09:15:49,2420,42.8014,5.9826,13.2980,4.38394,2453.469,36.4643
2023-11-25T09:18:49,2420,42.8014,5.9826,13.2973,4.38315,2453.537,36.4575
2023-11-25T09:21:49,2420,42.8014,5.9826,13.2976,4.38287,2453.491,36.4547
2023-11-25T09:24:49,2420,42.8014,5.9826,13.2970,4.38305,2453.491,36.4569
2023-11-25T09:27:49,2420,42.8014,5.9826,13.2983,4.38297,2453.514,36.4550
2023-11-25T09:30:49,2420,42.8014,5.9826,13.2977,4.38248,2453.491,36.4509
2023-11-25T09:33:49,2420,42.8014,5.9826,13.2970,4.38245,2453.454,36.4513
2023-11-25T09:36:49,2420,42.8014,5.9826,13.2980,4.38243,2453.514,36.4502
2023-11-25T09:39:49,2420,42.8014,5.9826,13.2976,4.38232,2453.491,36.4496
2023-11-25T09:42:49,2420,42.8014,5.9826,13.2975,4.38172,2453.469,36.4441
2023-11-25T09:45:49,2420,42.8014,5.9826,13.2979,4.38171,2453.499,36.4436
2023-11-25T09:48:49,2420,42.8014,5.9826,13.2982,4.38182,2453.491,36.4443
2023-11-25T09:51:49,2420,42.8014,5.9826,13.2978,4.38166,2453.483,36.4432
2023-11-25T09:54:49,2420,42.8014,5.9826,13.2978,4.38176,2453.477,36.4442
2023-11-25T09:57:49,2420,42.8014,5.9826,13.2986,4.38182,2453.469,36.4439
2023-11-25T10:00:49,2420,42.8014,5.9826,13.2980,4.38209,2453.469,36.4470
2023-11-25T10:03:49,2420,42.8014,5.9826,13.2985,4.38194,2453.446,36.4452
2023-11-25T10:06:49,2420,42.8014,5.9826,13.2978,4.38225,2453.469,36.4488
2023-11-25T10:09:49,2420,42.8014,5.9826,13.2975,4.38179,2453.469,36.4447
2023-11-25T10:12:49,2420,42.8014,5.9826,13.2973,4.38133,2453.491,36.4406
2023-11-25T10:15:49,2420,42.8014,5.9826,13.2973,4.38165,2453.446,36.4436
2023-11-25T10:18:49,2420,42.8014,5.9826,13.2970,4.38150,2453.469,36.4425
2023-11-25T10:21:49,2420,42.8014,5.9826,13.2973,4.38190,2453.469,36.4460
2023-11-25T10:24:49,2420,42.8014,5.9826,13.2975,4.38377,2453.483,36.4632
2023-11-25T10:27:49,2420,42.8014,5.9826,13.2978,4.38460,2453.446,36.4707
2023-11-25T10:30:50,2420,42.8014,5.9826,13.2975,4.38408,2453.469,36.4662
2023-11-25T10:33:49,2420,42.8014,5.9826,13.2978,4.38348,2453.454,36.4602
2023-11-25T10:36:49,2420,42.8014,5.9826,13.2974,4.38371,2453.446,36.4627
2023-11-25T10:39:49,2420,42.8014,5.9826,13.2978,4.38291,2453.469,36.4549
2023-11-25T10:42:49,2420,42.8014,5.9826,13.2978,4.38317,2453.461,36.4573
2023-11-25T10:45:49,2420,42.8014,5.9826,13.2979,4.38298,2453.446,36.4554
2023-11-25T10:48:49,2420,42.8014,5.9826,13.2979,4.38292,2453.446,36.4549
2023-11-25T10:51:49,2420,42.8014,5.9826,13.2973,4.38277,2453.446,36.4541
2023-11-25T10:54:49,2420,42.8014,5.9826,13.2978,4.38248,2453.424,36.4509
2023-11-25T10:57:49,2420,42.8014,5.9826,13.2976,4.38256,2453.446,36.4518
2023-11-25T11:00:49,2420,42.8014,5.9826,13.2974,4.38252,2453.446,36.4516
2023-11-25T11:03:49,2420,42.8014,5.9826,13.2977,4.38237,2453.446,36.4499
2023-11-25T11:06:49,2420,42.8014,5.9826,13.2973,4.38200,2453.424,36.4469
2023-11-25T11:09:49,2420,42.8014,5.9826,13.2978,4.38187,2453.446,36.4451
2023-11-25T11:12:49,2420,42.8014,5.9826,13.2977,4.38195,2453.424,36.4460
2023-11-25T11:15:49,2420,42.8014,5.9826,13.2978,4.38157,2453.424,36.4424
2023-11-25T11:18:49,2420,42.8014,5.9826,13.2977,4.38152,2453.446,36.4420
2023-11-25T11:21:49,2420,42.8014,5.9826,13.2977,4.38158,2453.424,36.4426
2023-11-25T11:24:49,2420,42.8014,5.9826,13.2976,4.38124,2453.446,36.4395
2023-11-25T11:27:49,2420,42.8014,5.9826,13.2977,4.38130,2453.446,36.4399
2023-11-25T11:30:49,2420,42.8014,5.9826,13.2975,4.38118,2453.424,36.4390
2023-11-25T11:33:49,2420,42.8014,5.9826,13.2978,4.38085,2453.446,36.4356
2023-11-25T11:36:49,2420,42.8014,5.9826,13.2979,4.38040,2453.424,36.4313
2023-11-25T11:39:49,2420,42.8014,5.9826,13.2978,4.37978,2453.424,36.4256
2023-11-25T11:42:49,2420,42.8014,5.9826,13.2975,4.37948,2453.401,36.4231
2023-11-25T11:45:49,2420,42.8014,5.9826,13.2978,4.37920,2453.416,36.4201
2023-11-25T11:48:49,2420,42.8014,5.9826,13.2976,4.37840,2453.424,36.4129
2023-11-25T11:51:49,2420,42.8014,5.9826,13.2974,4.37836,2453.409,36.4127
2023-11-25T11:54:50,2420,42.8014,5.9826,13.2972,4.37819,2453.401,36.4113
2023-11-25T11:57:49,2420,42.8014,5.9826,13.2973,4.37780,2453.379,36.4076
2023-11-25T12:00:49,2420,42.8014,5.9826,13.2977,4.37741,2453.424,36.4036
2023-11-25T12:03:49,2420,42.8014,5.9826,13.2978,4.37729,2453.401,36.4023
2023-11-25T12:06:49,2420,42.8014,5.9826,13.2978,4.37689,2453.424,36.3986
2023-11-25T12:09:49,2420,42.8014,5.9826,13.2979,4.37714,2453.401,36.4008
2023-11-25T12:12:49,2420,42.8014,5.9826,13.2975,4.37759,2453.401,36.4054
2023-11-25T12:15:49,2420,42.8014,5.9826,13.2978,4.37718,2453.401,36.4013
2023-11-25T12:18:49,2420,42.8014,5.9826,13.2978,4.37697,2453.424,36.3994
2023-11-25T12:21:49,2420,42.8014,5.9826,13.2978,4.37650,2453.386,36.3949
2023-11-25T12:24:49,2420,42.8014,5.9826,13.2975,4.37599,2453.386,36.3904
2023-11-25T12:27:49,2420,42.8014,5.9826,13.2978,4.37608,2453.409,36.3910
2023-11-25T12:30:49,2420,42.8014,5.9826,13.2978,4.37566,2453.401,36.3871
2023-11-25T12:33:49,2420,42.8014,5.9826,13.2978,4.37553,2453.438,36.3858
2023-11-25T12:36:49,2420,42.8014,5.9826,13.2979,4.37573,2453.424,36.3876
2023-11-25T12:39:49,2420,42.8014,5.9826,13.2978,4.37523,2453.409,36.3831
2023-11-25T12:42:49,2420,42.8014,5.9826,13.2981,4.37552,2453.424,36.3854
2023-11-25T12:45:49,2420,42.8014,5.9826,13.2976,4.37554,2453.424,36.3862
2023-11-25T12:48:49,2420,42.8014,5.9826,13.2975,4.37542,2453.416,36.3850
2023-11-25T12:51:49,2420,42.8014,5.9826,13.2983,4.37594,2453.379,36.3892
2023-11-25T12:54:49,2420,42.8014,5.9826,13.2979,4.37621,2453.424,36.3921
2023-11-25T12:57:49,2420,42.8014,5.9826,13.2980,4.37638,2453.424,36.3936
2023-11-25T13:00:49,2420,42.8014,5.9826,13.2983,4.37662,2453.424,36.3955
2023-11-25T13:03:49,2420,42.8014,5.9826,13.2982,4.37668,2453.424,36.3963
2023-11-25T13:06:49,2420,42.8014,5.9826,13.2993,4.37714,2453.424,36.3995
2023-11-25T13:09:49,2420,42.8014,5.9826,13.2986,4.37664,2453.386,36.3954
2023-11-25T13:12:49,2420,42.8014,5.9826,13.2988,4.37659,2453.416,36.3949
2023-11-25T13:15:49,2420,42.8014,5.9826,13.2988,4.37697,2453.401,36.3984
2023-11-25T13:18:49,2420,42.8014,5.9826,13.2989,4.37686,2453.401,36.3973
2023-11-25T13:21:49,2420,42.8014,5.9826,13.2994,4.37689,2453.424,36.3970
2023-11-25T13:24:49,2420,42.8014,5.9826,13.2984,4.37645,2453.401,36.3939
2023-11-25T13:27:50,2420,42.8014,5.9826,13.2988,4.37612,2453.379,36.3904
2023-11-25T13:30:49,2420,42.8014,5.9826,13.2982,4.37552,2453.401,36.3854
2023-11-25T13:33:49,2420,42.8014,5.9826,13.2994,4.37195,2453.401,36.3508
2023-11-25T13:36:49,2420,42.8014,5.9826,13.2982,4.37130,2453.424,36.3460
2023-11-25T13:39:49,2420,42.8014,5.9826,13.2993,4.37712,2453.409,36.3994
2023-11-25T13:42:49,2420,42.8014,5.9826,13.2993,4.37738,2453.401,36.4018
2023-11-25T13:45:49,2420,42.8014,5.9826,13.2994,4.37792,2453.424,36.4067
2023-11-25T13:48:49,2420,42.8014,5.9826,13.3000,4.37781,2453.409,36.4051
2023-11-25T13:51:49,2420,42.8014,5.9826,13.2996,4.37950,2453.424,36.4213
2023-11-25T13:54:50,2420,42.8014,5.9826,13.2994,4.37936,2453.416,36.4202
2023-11-25T13:57:49,2420,42.8014,5.9826,13.2985,4.37995,2453.438,36.4265
2023-11-25T14:00:49,2420,42.8014,5.9826,13.3027,4.38003,2453.446,36.4233
2023-11-25T14:03:49,2420,42.8014,5.9826,13.2990,4.37992,2453.409,36.4258
2023-11-25T14:06:49,2420,42.8014,5.9826,13.2982,4.38040,2453.401,36.4311
2023-11-25T14:09:49,2420,42.8014,5.9826,13.2978,4.38103,2453.424,36.4373
2023-11-25T14:12:49,2420,42.8014,5.9826,13.2984,4.38072,2453.424,36.4339
2023-11-25T14:15:49,2420,42.8014,5.9826,13.2993,4.38147,2453.446,36.4400
2023-11-25T14:18:49,2420,42.8014,5.9826,13.3011,4.38126,2453.446,36.4364
2023-11-25T14:21:49,2420,42.8014,5.9826,13.2984,4.38110,2453.424,36.4374
2023-11-25T14:24:49,2420,42.8014,5.9826,13.2987,4.38122,2453.461,36.4383
2023-11-25T14:27:49,2420,42.8014,5.9826,13.2988,4.38098,2453.424,36.4358
2023-11-25T14:30:49,2420,42.8014,5.9826,13.2984,4.38011,2453.469,36.4282
2023-11-25T14:33:49,2420,42.8014,5.9826,13.2996,4.38003,2453.446,36.4263
2023-11-25T14:36:49,2420,42.8014,5.9826,13.2985,4.38009,2453.469,36.4278
2023-11-25T14:39:49,2420,42.8014,5.9826,13.2982,4.38002,2453.446,36.4275
2023-11-25T14:42:49,2420,42.8014,5.9826,13.2979,4.38013,2453.424,36.4288
2023-11-25T14:45:49,2420,42.8014,5.9826,13.2988,4.38030,2453.469,36.4296
2023-11-25T14:48:49,2420,42.8014,5.9826,13.2979,4.38044,2453.461,36.4317
2023-11-25T14:51:49,2420,42.8014,5.9826,13.2982,4.38076,2453.469,36.4344
2023-11-25T14:54:50,2420,42.8014,5.9826,13.2986,4.38077,2453.446,36.4341
2023-11-25T14:57:49,2420,42.8014,5.9826,13.2985,4.38085,2453.491,36.4349
2023-11-25T15:00:49,2420,42.8014,5.9826,13.2981,4.38088,2453.469,36.4356
2023-11-25T15:03:49,2420,42.8014,5.9826,13.2991,4.38085,2453.431,36.4345
2023-11-25T15:06:49,2420,42.8014,5.9826,13.2991,4.38105,2453.469,36.4362
2023-11-25T15:09:49,2420,42.8014,5.9826,13.2978,4.38105,2453.469,36.4375
2023-11-25T15:12:49,2420,42.8014,5.9826,13.2976,4.38100,2453.469,36.4372
2023-11-25T15:15:49,2420,42.8014,5.9826,13.2986,4.38089,2453.528,36.4352
2023-11-25T15:18:49,2420,42.8014,5.9826,13.2993,4.38124,2453.491,36.4379
2023-11-25T15:21:49,2420,42.8014,5.9826,13.2988,4.38127,2453.537,36.4386
2023-11-25T15:24:49,2420,42.8014,5.9826,13.2997,4.38144,2453.537,36.4393
2023-11-25T15:27:49,2420,42.8014,5.9826,13.2979,4.38140,2453.514,36.4406
2023-11-25T15:30:49,2420,42.8014,5.9826,13.2979,4.38157,2453.514,36.4422
2023-11-25T15:33:49,2420,42.8014,5.9826,13.2975,4.38162,2453.514,36.4431
2023-11-25T15:36:49,2420,42.8014,5.9826,13.2979,4.38162,2453.477,36.4427
2023-11-25T15:39:49,2420,42.8014,5.9826,13.2976,4.38166,2453.514,36.4434
2023-11-25T15:42:49,2420,42.8014,5.9826,13.2980,4.38181,2453.514,36.4444
2023-11-25T15:45:49,2420,42.8014,5.9826,13.2982,4.38190,2453.514,36.4451
2023-11-25T15:48:49,2420,42.8014,5.9826,13.2977,4.38193,2453.559,36.4458
2023-11-25T15:51:49,2420,42.8014,5.9826,13.2977,4.38179,2453.506,36.4445
2023-11-25T15:54:49,2420,42.8014,5.9826,13.2975,4.38209,2453.514,36.4475
2023-11-25T15:57:49,2420,42.8014,5.9826,13.2975,4.38177,2453.537,36.4446
2023-11-25T16:00:49,2420,42.8014,5.9826,13.2976,4.38181,2453.514,36.4448
2023-11-25T16:03:49,2420,42.8014,5.9826,13.2978,4.38195,2453.537,36.4460